Regional Weather Roundup
Issued by NWS Bismarck, ND

Home | Current Version | Previous Version | Text Only | Print | Product List | Glossary On
Versions: 1 2 3 4 5 6 7 8 9 10 11 12 13 14 15 16 17 18 19 20 21 22 23 24 25 26 27 28 29 30 31 32 33 34 35 36 37 38 39 40 41 42 43 44 45 46 47 48 49 50
000
ASUS43 KBIS 021310
RWRBIS

NWR BROADCAST TEXT
NATIONAL WEATHER SERVICE BISMARCK ND
800 AM CDT THU OCT 02 2014

NOTE: "FAIR" INDICATES FEW OR NO CLOUDS BELOW 12,000 FEET WITH NO
SIGNIFICANT WEATHER AND/OR OBSTRUCTIONS TO VISIBILITY.


CITY           SKY/WX    TMP DP  RH WIND       PRES   REMARKS
WILLISTON      MOCLDY    43  39  86 SW10      29.81F
MINOT          PTCLDY    46  40  79 SW9       29.80F
MINOT AFB      CLOUDY    46  43  89 SW12      29.79F
BISMARCK       CLEAR     42  41  96 SW7       29.89S
DICKINSON      CLOUDY    43  38  82 S10       29.86F
GARRISON         N/A     44  42  93 W6        29.84F
HETTINGER ARPT MOCLDY    38  35  89 CALM      29.93S
JAMESTOWN      PTCLDY    45  43  93 W5        29.85F
BEACH            N/A     41  37  87 SW12      29.89S
CARRINGTON     FAIR      41  41 100 W10       29.86S
CROSBY         FAIR      41  41 100 SW14G21   29.77S
HARVEY         FAIR      39  39 100 SW7       29.84S
HAZEN          FAIR      36  36 100 CALM      29.87F
LINTON         FAIR      37  37 100 SW7       29.91S
MANDAN         FAIR      39  37  93 W6        29.89S
OAKES            N/A     48  48 100 CALM      29.88R
RUGBY          FAIR      39  39 100 SW3       29.82F
STANLEY        FAIR      41  41 100 S6        29.80F
TIOGA          FAIR      41  41 100 SW9       29.83S
WATFORD CITY   FAIR      39  37  93 W5        29.82S
$$

CITY           SKY/WX    TMP DP  RH WIND       PRES   REMARKS
GRAND FORKS    CLOUDY    50  47  89 SW5       29.81S
GRAND FORKS AF CLOUDY    48  48  99 SW3       29.82S
DEVILS LAKE    CLEAR     46  39  76 W8        29.81R
FARGO          MOCLDY    49  46  90 SW5       29.85R
CANDO          FAIR      37  37 100 W6        29.82R
CAVALIER       FAIR      45  43  93 W7        29.79S
GRAFTON        FAIR      46  46 100 SW6       29.80S
GWINNER          N/A     50  50 100 SW7       29.88S
LANGDON        FOG       37  36  93 SW7       29.80S VSB<1/4
ROLLA          FAIR      39  39 100 SW7       29.81S
WALHALLA         N/A     45  45 100 W6        29.79F
$$

CITY           SKY/WX    TMP DP  RH WIND       PRES   REMARKS
ABERDEEN       CLOUDY    50  48  93 W3        29.89S
MOBRIDGE       CLEAR     42  40  92 CALM      29.90S
BUFFALO          N/A     40  33  76 W12       29.88F
RAPID CITY     CLEAR     39  34  82 NW7       30.00S
GLASGOW        CLOUDY    42  36  79 NW16G25   29.90R
SIDNEY         MOCLDY    41  37  87 S9        29.85F
WOLF POINT     CLEAR     39  34  82 W9        29.86R
GLENDIVE       MOCLDY    43  36  75 SW8       29.89S
MILES CITY     PTCLDY    38  32  79 W6        29.94S
BAKER          PTCLDY    41  34  76 SW10      29.93S
$$

CITY           SKY/WX    TMP DP  RH WIND       PRES   REMARKS
BILLINGS       MOCLDY    44  29  55 SW15      30.00S
GREAT FALLS    LGT SNOW  34  32  93 NW17      30.07R FOG
REGINA         LGT RAIN  43  41  93 NW22G29   29.80R
ESTEVAN        MOCLDY    43  41  93 S10       29.74F
$$



USA.gov is the U.S. government's official web portal to all federal, state and local government web resources and services.